Clinton-Sherman, OK

6:43 PM CDT on May 26, 2018 (GMT -0500)
Clinton-Sherman

Weather History for KCSM - March, 2012

Change the Weather History Date:

Wednesday, March 14, 2012

  Actual Average Record
Temperature  
Mean Temperature 64 °F -  
Max Temperature 73 °F 57 °F 84 °F (2002)
Min Temperature 57 °F 36 °F 26 °F (2006)
Growing Degree Days 14 (Base 50)    
Moisture  
Dew Point 61 °F    
Average Humidity 87    
Maximum Humidity 100    
Minimum Humidity 71    
Precipitation  
Precipitation 0.00 in - - ()
Sea Level Pressure  
Sea Level Pressure 29.97 in    
Wind  
Wind Speed 18 mph (South)    
Max Wind Speed 23 mph    
Max Gust Speed 30 mph    
Visibility 7 miles    
Events      
Averages and records for this station are not official NWS values.
T = Trace of Precipitation, MM = Missing Value Source: NWS Daily Summary

Daily Weather History Graph

Daily Weather History Graph

Search for Another Location

Airport or City:

Astronomy

Mar. 14, 2012 Rise Set
Actual Time 7:48 AM CDT 7:43 PM CDT
Civil Twilight 7:22 AM CDT 8:09 PM CDT
Nautical Twilight 6:53 AM CDT 8:38 PM CDT
Astronomical Twilight 6:23 AM CDT 9:08 PM CDT
Moon 2:06 AM CDT (3/14) 12:15 PM CDT (3/14)
Length of Visible Light 12h 46m
Length of Day
11h 55m
Waning Gibbous, 54% of the Moon is Illuminated
Mar 14
Waning Gibbous
Mar 14
Last Quarter
Mar 22
New
Mar 30
First Quarter
Apr 6
Full

Hourly Weather History & Observations

Time (CDT) Temp. Dew Point Humidity Pressure Visibility Wind Dir Wind Speed Gust Speed Precip Events Conditions
12:53 AM 62.1 °F 60.1 °F 93% 29.92 in 9.0 mi South 20.7 mph - N/A   Clear
1:53 AM 62.1 °F 60.1 °F 93% 29.93 in 8.0 mi South 16.1 mph - N/A   Clear
3:53 AM 59.0 °F 57.9 °F 96% 29.93 in 5.0 mi South 12.7 mph - N/A   Clear
4:53 AM 59.0 °F 57.9 °F 96% 29.93 in 5.0 mi South 13.8 mph - N/A   Clear
5:53 AM 59.0 °F 57.9 °F 96% 29.93 in 4.0 mi South 18.4 mph - N/A   Clear
6:07 AM 57.2 °F 57.2 °F 100% 29.98 in 3.0 mi South 18.4 mph - N/A   Partly Cloudy
6:53 AM 57.9 °F 57.0 °F 97% 29.94 in 4.0 mi SSW 19.6 mph - N/A   Clear
7:53 AM 59.0 °F 57.9 °F 96% 29.95 in 3.0 mi South 21.9 mph - N/A   Clear
8:53 AM 60.1 °F 59.0 °F 96% 29.98 in 4.0 mi South 18.4 mph - N/A   Partly Cloudy
9:33 AM 62.6 °F 60.8 °F 94% 30.04 in 4.0 mi South 13.8 mph - N/A   Mostly Cloudy
9:40 AM 62.6 °F 60.8 °F 94% 30.05 in 4.0 mi South 17.3 mph - N/A   Mostly Cloudy
9:53 AM 63.0 °F 61.0 °F 93% 30.01 in 4.0 mi South 17.3 mph - N/A   Overcast
10:53 AM 66.0 °F 62.1 °F 87% 30.01 in 7.0 mi South 17.3 mph - N/A   Overcast
11:05 AM 66.2 °F 62.6 °F 88% 30.05 in 8.0 mi South 19.6 mph - N/A   Mostly Cloudy
11:53 AM 68.0 °F 63.0 °F 84% 30.00 in 10.0 mi South 19.6 mph 28.8 mph N/A   Overcast
12:53 PM 71.1 °F 63.0 °F 75% 29.99 in 10.0 mi SSW 23.0 mph 27.6 mph N/A   Mostly Cloudy
1:53 PM 72.0 °F 63.0 °F 73% 29.97 in 10.0 mi South 17.3 mph 26.5 mph N/A   Mostly Cloudy
2:53 PM 72.0 °F 62.1 °F 71% 29.95 in 10.0 mi South 23.0 mph 29.9 mph N/A   Mostly Cloudy
3:10 PM 71.6 °F 62.6 °F 73% 29.99 in 10.0 mi South 20.7 mph 27.6 mph N/A   Mostly Cloudy
3:53 PM 72.0 °F 62.1 °F 71% 29.93 in 10.0 mi South 20.7 mph 27.6 mph N/A   Partly Cloudy
4:53 PM 72.0 °F 62.1 °F 71% 29.93 in 10.0 mi South 20.7 mph 26.5 mph N/A   Partly Cloudy
5:53 PM 72.0 °F 62.1 °F 71% 29.92 in 10.0 mi South 17.3 mph 25.3 mph N/A   Clear
6:53 PM 69.1 °F 61.0 °F 75% 29.94 in 10.0 mi South 19.6 mph - N/A   Partly Cloudy
7:53 PM 66.0 °F 61.0 °F 84% 29.96 in 10.0 mi South 16.1 mph - N/A   Scattered Clouds
8:53 PM 64.0 °F 61.0 °F 90% 29.97 in 10.0 mi South 16.1 mph - N/A   Partly Cloudy
9:53 PM 63.0 °F 61.0 °F 93% 29.98 in 9.0 mi South 17.3 mph - N/A   Clear
10:53 PM 63.0 °F 61.0 °F 93% 29.98 in 9.0 mi South 17.3 mph - N/A   Clear
11:53 PM 63.0 °F 61.0 °F 93% 29.98 in 8.0 mi South 18.4 mph - N/A   Clear